Location: Unspecified
(0.0000°N, 0.0000°E)
Time: 04:34:47
(UTC+02:00)

Ariane H10-3 - Visible Passes

Search period start: 03 July 2015 00:00
Search period end: 13 July 2015 00:00
Orbit: 233 x 20922 km, 7.4° (Epoch: 02 July)

Date Brightness Start Highest point End Pass type
(mag) Time Alt. Az. Time Alt. Az. Time Alt. Az.
03 Jul 6.4 06:12:55 34° WSW 06:22:55 87° S 10:50:22 10° E visible
04 Jul 6.7 06:37:34 23° W 06:51:59 90° S 11:25:54 10° E visible
05 Jul 7.0 07:02:02 14° W 07:21:55 88° N 11:58:28 10° E visible
06 Jul 7.3 07:26:59 10° W 07:53:09 86° N 12:29:04 10° E visible
09 Jul 7.8 02:31:56 11° E 02:31:56 11° E 02:32:24 10° E visible
10 Jul 7.5 02:55:26 19° E 02:55:26 19° E 03:02:05 10° E visible
10 Jul 4.8 20:21:08 10° W 20:44:25 63° SSW 20:48:19 13° ESE visible
11 Jul 7.1 03:18:44 28° E 03:18:44 28° E 03:33:38 10° E visible
11 Jul 4.2 20:52:50 10° W 21:09:03 54° SSW 21:11:27 24° SE visible
12 Jul 6.7 03:41:51 39° E 03:41:51 39° E 04:08:30 10° E visible
12 Jul 3.8 21:22:04 10° W 21:33:22 44° SSW 21:34:23 37° SSE visible
